Tracking 31027 objects as of 19-Jul-2025
HD Live streaming from Space Station
objects crossing your sky now

STARLINK-3605

Track STARLINK-3605 now!
10-day predictions
STARLINK-3605 is classified as:


NORAD ID: 51805
Int'l Code: 2022-017AP
Perigee: 546.1 km
Apogee: 547.7 km
Inclination: 53.2 °
Period: 95.4 minutes
Semi major axis: 6917 km
RCS: Unknown
Launch date: February 25, 2022
Source: United States (US)
Launch site: AIR FORCE WESTERN TEST RANGE (AFWTR)
Your satellite tracking list
STARLINK-2062
Track 1 satellite(s)




NASA's NSSDC Master Catalog

Two Line Element Set (TLE):
1 51805U 22017AP  25199.46680732  .00000577  00000-0  54336-4 0  9997
2 51805  53.2186 300.6662 0001164  79.5203 280.5920 15.08833979188889
Source of the keplerian elements: AFSPC